AKST,Max TemperatureF,Mean TemperatureF,Min TemperatureF,Max Dew PointF,MeanDew PointF,Min DewpointF,Max Humidity, Mean Humidity, Min Humidity, Max Sea Level PressureIn, Mean Sea Level PressureIn, Min Sea Level PressureIn, Max VisibilityMiles, Mean VisibilityMiles, Min VisibilityMiles, Max Wind SpeedMPH, Mean Wind SpeedMPH, Max Gust SpeedMPH,PrecipitationIn, CloudCover, Events, WindDirDegrees
2012-11-1,3,-6,-15,-1,-10,-18,92,83,67,30.24,30.13,29.95,10,6,0,5,1,,0.00,4,Fog,170
2012-11-2,9,-4,-16,5,-6,-21,87,81,67,30.18,29.87,29.55,10,10,4,7,3,,0.00,5,Snow,226
2012-11-3,10,1,-8,6,2,-6,92,84,69,29.78,29.72,29.53,10,9,5,8,3,,0.00,6,Snow,200
2012-11-4,10,4,-2,7,5,0,92,84,71,29.85,29.71,29.60,10,5,1,9,4,,0.00,8,Snow,261
2012-11-5,8,3,-2,1,-2,-7,92,83,74,30.30,30.05,29.76,10,7,2,10,7,,0.01,7,Snow,270
2012-11-6,0,-12,-23,-9,-18,-28,87,79,65,30.63,30.48,30.32,10,9,1,5,2,,0.00,2,,193
2012-11-7,-7,-17,-27,-13,-24,-32,82,76,59,30.70,30.67,30.63,10,10,10,5,1,,0.00,1,,140
2012-11-8,3,-11,-25,-5,-10,-25,82,71,52,30.66,30.51,30.30,10,10,5,31,13,45,0.04,2,,119
2012-11-9,12,5,-2,4,-1,-6,70,64,50,30.30,30.08,29.89,10,10,9,30,24,37,0.01,7,,110
2012-11-10,18,12,6,14,10,4,88,75,55,29.88,29.74,29.65,10,5,1,22,13,28,0.04,8,Snow,104
2012-11-11,19,17,14,16,15,12,96,89,78,30.04,29.83,29.66,10,6,2,7,5,,0.04,8,Snow,81
2012-11-12,16,11,3,11,5,1,92,84,71,30.29,30.18,29.96,10,9,6,5,0,,0.00,8,Snow,54
2012-11-13,8,-2,-11,0,-4,-14,92,82,67,30.32,30.19,29.89,10,9,2,23,6,30,0.00,5,Snow,131
2012-11-14,7,4,0,3,0,-3,84,75,61,29.86,29.66,29.51,10,4,1,25,20,33,0.04,7,Snow,103
2012-11-15,9,2,-4,3,1,-7,87,80,62,30.13,29.86,29.62,10,5,2,14,9,21,0.01,7,Snow,93
2012-11-16,3,-6,-16,-7,-11,-19,92,82,63,30.25,30.13,29.93,10,8,0,6,2,,0.00,7,Fog-Snow,231
2012-11-17,-2,-12,-22,-11,-17,-26,82,72,54,30.12,29.87,29.70,10,10,8,18,6,30,0.00,5,,99
2012-11-18,-2,-10,-18,-12,-14,-19,82,61,46,29.94,29.79,29.69,10,10,10,23,17,33,0.00,2,,117
2012-11-19,-2,-8,-15,-14,-17,-21,79,59,33,30.09,30.04,29.95,10,10,10,21,14,,0.00,2,,116
2012-11-20,-11,-14,-18,-18,-21,-25,82,75,62,30.14,30.10,30.07,10,10,10,7,4,,0.00,3,,215
2012-11-21,-5,-12,-20,-12,-17,-22,82,75,59,30.25,30.18,30.13,10,10,9,7,3,,0.00,7,Snow,215
2012-11-22,8,-5,-18,-1,-13,-22,82,72,53,30.27,30.19,29.91,10,10,10,18,8,22,0.01,4,,177
2012-11-23,9,-4,-17,-1,-12,-20,83,76,54,30.22,30.08,29.86,10,10,10,17,8,,0.00,4,,203
2012-11-24,-11,-16,-20,-17,-21,-25,84,77,62,30.38,30.28,30.12,10,10,10,6,3,,0.00,1,,199
2012-11-25,-11,-17,-23,-16,-23,-29,82,74,54,30.61,30.52,30.39,10,10,10,5,3,,0.00,0,,156
2012-11-26,-6,-15,-24,-13,-17,-24,79,74,56,30.60,30.49,30.36,10,10,10,7,3,,0.00,1,,113
2012-11-27,-9,-16,-23,-16,-21,-28,79,74,59,30.51,30.41,30.34,10,10,10,10,4,,0.00,1,,111
2012-11-28,-5,-15,-25,-12,-21,-30,82,75,59,30.51,30.42,30.31,10,10,10,17,3,23,0.00,1,,114
2012-11-29,-20,-26,-31,-28,-32,-35,81,74,63,30.38,30.32,30.11,10,10,10,8,2,,0.00,1,,200
2012-11-30,-23,-28,-33,-30,-33,-37,78,72,58,30.37,30.30,29.98,10,10,10,6,1,,0.00,0,,129